Regional Weather Roundup
Issued by NWS

Home | Current Version | Previous Version | Graphics & Text | Print | Product List | Glossary On
Versions: 1 2 3 4 5 6 7 8 9 10 11 12 13 14 15 16 17 18 19 20 21 22 23 24 25 26 27 28 29 30 31 32 33 34 35 36 37 38 39 40 41 42 43 44 45 46
000
ASUS45 KCYS 031610
RWRWY

WYOMING REGIONAL WEATHER ROUNDUP
NATIONAL WEATHER SERVICE CHEYENNE WY
1000 AM MDT MON AUG 03 2015

NOTE:  "FAIR" INDICATES FEW OR NO CLOUDS BELOW 12,000 FEET
WITH NO SIGNIFICANT WEATHER AND/OR OBSTRUCTIONS TO VISIBILITY.

WYZ001-031700-
YELLOWSTONE NATIONAL PARK

CITY           SKY/WX    TMP DP  RH WIND       PRES   REMARKS
LK YELLOWSTONE   N/A     64  44  48 VRB3      30.26S
W YELLOWSTONE  NOT AVBL

$$
WYZ002>013-054>058-071-098>099-031700-
NORTHERN WYOMING

CITY           SKY/WX    TMP DP  RH WIND       PRES   REMARKS
JACKSON        SUNNY     63  45  51 CALM      30.16F
CODY           FAIR      70  46  43 NE5       30.07S
GREYBULL       FAIR      74  43  32 E3        29.99F
WORLAND        FAIR      76  41  28 CALM      30.00F
SHERIDAN       FAIR      72  48  42 N5        30.02F
BUFFALO        FAIR      77  55  46 S13       30.09F
GILLETTE       FAIR      76  57  51 SE14      30.06F
HULETT         FAIR      70  54  56 CALM      30.08S
NEWCASTLE      FAIR      75  54  46 S6        30.07F

$$
WYZ014>020-022>026-101>103-031700-
CENTRAL WYOMING

CITY           SKY/WX    TMP DP  RH WIND       PRES   REMARKS
BIG PINEY      FAIR      65  46  50 SW8       30.22R
PINEDALE       FAIR      68  43  40 SE8G16    30.22S
DUBOIS         NOT AVBL
LANDER         FAIR      75  47  36 E5        30.09S
RIVERTON       FAIR      69  52  54 S6        30.10F
CASPER         FAIR      71  53  52 VRB3      30.11S
DOUGLAS        FAIR      72  55  55 W5        30.09F

$$
WYZ021-027>030-104>119-031700-
SOUTHERN WYOMING

CITY           SKY/WX    TMP DP  RH WIND       PRES   REMARKS
EVANSTON       LGT RAIN  55  53  93 W8        30.20S FOG
KEMMERER       DRIZZLE   59  48  67 E15G24    30.23S
FORT BRIDGER   LGT RAIN  57  57 100 E10       30.21F
ROCK SPRINGS   CLOUDY    57  54  89 SE7       30.20S
DIXON          LGT RAIN  63  51  66 W3        30.24S
RAWLINS        PTSUNNY   68  46  45 SW14      30.21S
SARATOGA       FAIR      70  43  37 NE3       30.23S
LARAMIE        FAIR      71  45  39 N6        30.23S
CHEYENNE       FAIR      79  48  33 SW6       30.14F
TORRINGTON     FAIR      74  57  55 VRB5      30.03S
PINE BLUFFS    FAIR      73  52  46 CALM      30.10S

$$


USA.gov is the U.S. government's official web portal to all federal, state and local government web resources and services.